Location: Newark
(35.1686°N, 108.2815°E)
Time: 04:54:47
(UTC+00:00)

Hubble Space Telescope - Pass Details

Date: 07 April 2020
Orbit: 536 x 540 km, 28.5° (Epoch: 30 May)

Event Time Altitude Azimuth Distance (km) Brightness Sun altitude
Rises 12:54:08 0° 241° (WSW) 2,664 4.8 -20.5°
Reaches altitude 10° 12:56:37 10° 229° (SW) 1,775 3.7 -21.0°
Enters shadow 12:59:02 24° 197° (SSW) 1,136 2.3 -21.4°
